Location: Unspecified
(0.0000°N, 0.0000°E)
Time: 17:29:30
(UTC+00:00)

Explorer 11/Cluster Stage 4 - Pass Details

Date: 15 December 2018
Orbit: 467 x 1260 km, 28.8° (Epoch: 17 June)

Event Time Altitude Azimuth Distance (km) Brightness Sun altitude
Rises 21:51:55 0° 248° (WSW) 3,989 10.8 -52.0°
Reaches altitude 10° 21:55:01 10° 252° (WSW) 2,924 9.9 -52.6°
Enters shadow 21:55:04 10° 252° (WSW) 2,909 9.9 -52.6°
